Location: Unspecified
(0.0000°N, 0.0000°E)
Time: 13:06:30
(UTC+00:00)

S-56A Canister/Altair - Pass Details

Date: 26 May 2024
Orbit: 637 x 2489 km, 38.9° (Epoch: 17 June)

Event Time Altitude Azimuth Distance (km) Brightness Sun altitude
Rises 00:28:20 0° 217° (SW) 5,312 - -67.5°
Reaches altitude 10° 00:31:38 10° 213° (SSW) 4,522 - -67.2°
Maximum altitude 00:44:33 56° 137° (SE) 2,768 - -65.9°
Exits shadow 00:54:01 26° 72° (ENE) 3,974 11.1 -64.7°
Drops below altitude 10° 00:59:05 10° 64° (ENE) 5,074 11.9 -64.0°
Sets 01:03:00 0° 60° (ENE) 5,982 12.4 -63.4°
